Home   Weather   Freeport   Past weeks

Flag for Bahamas Past Weather in Freeport, Bahamas — Yesterday and Last 2 Weeks

78 °F

Partly cloudy.

Feels Like: 80 °F
Forecast: 76 / 82 °F
Wind: 18 mph from East

Location: Palm Beach International Airport

Current Time: Oct 27, 2016 at 1:16:48 AM

Latest Report: Oct 26, 2016 at 11:53 PM

Visibility: 10 mi

Pressure: 30.15 "Hg

Humidity: 64%

Dew Point: 65 °F

Location of FreeportLocation

Past Weather in Freeport — Graph


Freeport Temperature Yesterday

Maximum temperature yesterday: 83 °F (at 1:53 PM)
Minimum temperature yesterday: 77 °F (at 12:53 AM)
Average temperature yesterday: 79 °F

High & Low Weather Summary for the Past Weeks

High86 °F (Oct 15, 12:53 PM)90% (Oct 20, 8:53 AM)30.20 "Hg (Oct 20, 8:53 AM)
Low62 °F (Oct 23, 12:53 AM)39% (Oct 22, 2:53 PM)29.77 "Hg (Oct 21, 3:53 PM)
Average79 °F63%30.01 "Hg
* Reported Oct 11 11:53 PM — Oct 26 11:53 PM, Freeport, Weather by CustomWeather, © 2016

Note: Actual official high and low records may vary slightly from our data, if they occured in-between our weather recording intervals... More about our weather records


Freeport Weather History for the Previous 24 Hours

Scroll right to see more
Time TempWeatherWind HumidityBarometerVisibility
11:53 PM
Wed, Oct 26
78 °FPartly cloudy.18 mph64%30.15 "Hg10 mi
10:53 PM78 °FPartly cloudy.17 mph64%30.16 "Hg10 mi
9:53 PM78 °FPartly cloudy.18 mph58%30.15 "Hg10 mi
8:53 PM78 °FPassing clouds.18 mph56%30.14 "Hg10 mi
7:53 PM79 °FPassing clouds.17 mph58%30.13 "Hg10 mi
6:53 PM79 °FPartly cloudy.14 mph60%30.12 "Hg10 mi
5:53 PM80 °FBroken clouds.18 mph62%30.11 "Hg10 mi
4:53 PM81 °FBroken clouds.20 mph60%30.11 "Hg10 mi
3:53 PM82 °FBroken clouds.17 mph55%30.11 "Hg10 mi
2:53 PM83 °FBroken clouds.16 mph48%30.12 "Hg10 mi
1:53 PM83 °FBroken clouds.23 mph46%30.14 "Hg10 mi
12:53 PM81 °FBroken clouds.18 mph51%30.17 "Hg10 mi
11:53 AM82 °FBroken clouds.20 mph53%30.17 "Hg10 mi
10:53 AM80 °FBroken clouds.17 mph56%30.17 "Hg10 mi
9:53 AM79 °FBroken clouds.16 mph58%30.17 "Hg10 mi
8:53 AM79 °FBroken clouds.17 mph56%30.16 "Hg10 mi
7:53 AM78 °FScattered clouds.17 mph56%30.14 "Hg10 mi
6:53 AM77 °FPassing clouds.12 mph56%30.14 "Hg10 mi
5:53 AM77 °FPartly cloudy.15 mph58%30.13 "Hg10 mi
4:53 AM77 °FPassing clouds.12 mph58%30.13 "Hg10 mi
3:53 AM77 °FPassing clouds.13 mph54%30.13 "Hg10 mi
2:53 AM77 °FPassing clouds.15 mph56%30.14 "Hg10 mi
1:53 AM77 °FPassing clouds.13 mph56%30.15 "Hg10 mi
Weather by CustomWeather, © 2016

See weather overviewHow to use our weather pages